Theta_e
308 309 310 311 313 314 315 317 319 320 320 319 318 318 317 315 311 308 308 310 309 309 309 310 307 310 312 313 314 311 311 310 310 311 310 310 310 309 309 312 314 316 318 321 324 324 324 324 323 324 323 323 323 322 322 323 323 323 323 323 325 326 325 324 323 323 323 324 325 326 325 325 324 323
308 308 308 309 310 311 312 314 316 316 318 318 319 318 318 317 312 310 307 307 309 310 306 309 307 304 307 308 309 309 311 307 308 309 309 308 308 306 307 309 311 313 314 318 321 322 322 321 321 322 322 322 322 322 322 322 322 322 322 322 323 323 323 322 321 322 322 323 325 326 326 325 324 323
307 308 308 308 309 310 311 312 313 314 314 316 317 317 317 315 315 313 312 307 310 311 310 305 306 306 304 305 306 306 307 306 305 306 306 307 303 302 303 302 305 309 312 313 314 315 317 318 319 319 319 320 320 320 321 321 321 322 321 321 320 320 319 319 320 321 322 323 324 323 324 324 324 324
303 304 306 307 308 310 310 311 311 312 312 313 315 317 317 316 316 315 313 309 309 310 312 313 312 309 307 301 302 303 305 305 301 305 305 305 300 302 303 299 301 305 307 308 308 308 309 311 313 314 315 316 317 318 319 320 320 319 319 317 317 316 316 317 317 318 320 322 322 322 323 323 324 324
300 301 302 304 307 310 311 312 313 313 313 312 313 313 314 314 315 315 313 310 309 310 307 311 312 304 302 302 302 304 305 306 304 302 303 304 302 302 301 301 299 301 303 305 305 305 305 305 306 308 311 312 313 314 315 315 314 313 312 312 312 312 313 314 315 316 317 319 321 321 322 323 324 325
298 299 299 301 303 305 307 309 311 312 312 312 311 311 311 312 313 314 312 310 309 308 303 305 304 303 301 306 298 306 305 305 302 302 302 301 301 300 300 301 301 299 301 303 304 304 305 304 304 305 306 307 307 308 308 307 308 308 309 309 310 310 311 311 312 313 314 315 318 320 320 321 322 324
297 297 298 298 300 302 303 304 307 309 311 312 312 312 312 311 311 312 313 311 310 309 309 309 310 307 301 303 305 301 302 300 299 301 302 301 299 299 300 301 303 300 302 303 304 304 304 304 303 304 304 304 304 305 305 305 306 306 307 307 307 308 308 308 308 309 310 311 313 316 317 319 321 323
295 295 295 296 298 299 299 301 303 305 307 308 309 309 310 312 312 313 312 312 311 309 307 305 305 305 303 304 299 298 296 299 298 299 301 299 299 298 298 301 302 300 300 301 301 302 302 302 302 303 303 303 302 302 302 302 302 303 304 305 306 306 307 307 307 308 308 308 309 311 312 314 317 321
294 294 294 295 296 297 297 299 300 302 303 304 306 307 309 309 310 311 311 311 311 309 307 308 306 300 298 298 295 297 300 298 296 296 299 300 300 300 299 298 299 297 297 298 298 299 300 300 301 301 300 300 300 300 299 300 299 300 301 302 303 305 305 306 306 306 307 306 306 307 309 310 311 314
293 293 294 294 295 295 296 297 298 300 300 302 303 304 306 307 308 309 309 309 309 309 309 309 308 299 303 297 293 295 298 299 297 296 295 294 294 297 298 298 297 297 297 297 297 297 298 298 298 298 298 298 298 297 298 298 297 298 300 302 304 304 304 304 304 305 306 306 307 307 308 308 308 309
292 293 294 295 295 295 296 296 296 296 297 298 299 301 302 304 305 305 306 307 307 308 308 307 307 306 297 298 302 294 294 295 295 298 294 297 297 294 297 299 295 293 295 295 294 294 293 293 294 296 297 295 295 296 296 296 296 298 300 301 303 304 305 305 305 306 306 306 307 307 307 306 304 303
291 292 293 294 295 295 294 294 294 295 295 296 296 298 299 300 300 301 301 302 303 303 303 304 304 299 301 292 289 289 293 295 293 296 298 299 300 299 293 294 297 291 292 293 292 291 292 292 293 294 294 294 293 294 294 295 295 298 300 301 302 302 302 302 301 301 301 302 302 302 302 302 301 301
291 291 292 293 293 293 291 290 291 292 292 295 295 297 298 298 298 299 300 300 300 300 301 301 300 299 298 295 294 292 293 297 301 299 297 298 297 293 292 292 290 292 292 291 290 291 289 289 290 290 290 291 291 293 293 294 295 297 299 300 300 301 301 301 300 300 300 300 300 300 299 299 299 299
290 291 291 292 290 289 290 290 291 292 293 292 294 295 296 296 297 298 298 298 298 299 299 300 300 299 301 300 297 299 298 296 293 293 294 297 297 293 292 291 291 290 292 291 293 292 288 289 289 289 289 289 290 291 293 294 295 297 299 299 299 299 300 300 299 299 299 299 299 299 299 299 299 298
288 289 290 291 290 291 290 292 291 292 292 292 293 293 293 293 295 295 296 298 299 298 298 299 300 300 300 302 299 298 298 292 297 299 296 297 293 294 296 297 290 288 294 292 292 292 287 288 290 287 287 288 288 290 291 296 296 297 298 298 298 299 299 299 299 299 298 298 298 298 298 298 298 298
287 288 289 290 291 292 292 292 293 292 292 292 292 292 293 293 293 294 295 295 297 298 299 299 300 301 301 303 300 298 293 297 295 294 294 295 297 296 294 292 296 290 292 292 289 291 286 286 288 287 287 286 287 289 291 296 297 297 297 298 298 298 299 298 298 298 298 297 297 297 297 297 297 297
287 287 288 289 290 291 289 290 292 292 293 292 292 292 292 293 294 295 296 295 296 298 298 298 299 301 303 303 303 299 297 298 299 294 293 294 294 297 297 297 295 289 290 291 290 291 288 287 287 288 287 286 286 287 290 296 297 297 297 297 297 298 298 297 297 297 297 297 297 297 297 297 298 298
286 287 287 288 288 289 290 290 290 290 291 291 292 293 294 295 294 294 294 294 293 293 296 298 297 300 302 302 304 302 300 300 299 297 296 296 295 294 296 296 293 288 292 294 290 289 288 286 287 288 286 286 286 286 290 296 297 297 297 297 297 297 297 297 297 297 297 297 297 297 298 298 298 298
286 287 288 288 287 287 287 288 288 288 289 290 290 290 291 292 294 295 296 297 298 298 299 299 299 301 303 303 304 306 304 302 303 303 302 301 300 295 289 288 287 287 289 291 291 293 288 286 288 288 286 285 286 286 288 293 296 297 297 297 297 297 297 296 296 296 297 297 297 298 298 298 297 297
286 287 287 286 285 285 286 287 288 288 288 288 288 288 289 290 292 294 293 295 296 297 299 300 301 302 302 301 303 303 304 302 300 298 292 292 292 293 293 293 289 291 289 290 292 291 287 285 289 287 285 285 286 286 286 289 293 296 296 296 296 296 296 296 296 297 297 297 297 297 297 296 296 295
286 286 285 285 285 285 285 286 288 289 288 287 286 286 287 288 289 291 294 295 295 295 295 295 296 297 298 298 299 299 299 298 299 296 293 293 293 293 292 292 290 292 289 288 291 291 289 286 288 286 285 285 285 285 286 286 289 295 296 296 296 296 296 297 297 297 297 297 297 296 296 295 294 293
284 284 285 284 284 284 284 287 288 288 287 285 285 285 285 285 286 288 291 294 295 295 295 294 294 294 295 295 296 297 297 297 296 297 295 295 294 294 294 294 292 290 289 289 290 289 288 286 287 286 285 285 285 285 285 286 287 291 295 296 296 296 296 296 296 296 296 296 296 296 295 295 293 290
283 283 283 283 284 284 285 286 287 287 286 285 285 285 285 284 284 287 289 290 292 292 293 294 296 296 294 293 294 294 294 294 293 298 300 298 295 295 294 294 291 290 289 290 291 292 288 287 287 287 286 287 286 285 285 285 286 287 288 290 291 295 295 295 296 296 296 296 295 295 294 294 292 288
281 281 281 282 283 285 285 286 286 287 287 286 286 286 285 284 284 287 288 288 288 289 290 292 293 294 296 295 293 292 292 293 292 296 299 299 298 297 296 294 293 294 290 289 292 293 289 290 288 288 289 288 288 285 285 286 286 286 287 288 289 292 292 293 295 296 295 295 295 294 294 294 291 288
279 280 280 280 282 284 285 285 286 286 287 287 286 286 285 286 286 287 287 287 287 288 289 290 291 293 294 294 294 292 292 292 292 293 295 298 299 299 297 294 292 293 290 288 293 294 289 288 289 287 288 286 285 283 284 285 286 286 286 287 288 289 289 290 291 292 295 295 294 294 294 292 291 289
278 279 279 279 281 283 284 285 286 286 287 287 286 286 287 288 288 287 287 287 287 287 287 288 289 290 292 294 294 294 293 294 293 294 295 295 297 299 301 300 296 293 293 291 293 294 290 287 289 288 288 287 285 285 284 285 285 285 286 287 287 287 288 289 288 289 289 289 290 292 292 292 291 290
277 278 278 279 281 282 283 284 285 286 287 286 286 287 288 288 288 287 286 286 286 286 286 287 288 289 291 291 293 294 293 294 293 293 293 294 295 295 295 296 298 299 297 292 290 293 293 289 288 290 289 289 287 284 284 284 285 285 286 286 286 287 288 288 288 288 288 288 289 292 292 292 291 291
277 277 278 279 282 283 283 284 285 285 285 285 287 288 288 287 286 286 285 285 285 285 286 286 287 288 291 292 293 294 294 295 294 293 293 294 294 295 295 295 293 292 290 290 291 293 294 291 288 290 292 289 288 285 285 284 285 286 285 286 286 286 287 288 287 287 287 288 287 287 287 287 288 288
277 279 281 281 282 282 283 284 284 285 285 286 287 287 287 285 285 285 285 285 285 285 285 286 288 289 291 292 294 295 294 293 293 291 291 291 292 291 292 291 290 289 289 290 291 292 294 292 289 289 290 290 291 290 288 285 285 285 286 285 285 286 286 287 287 287 286 287 287 287 287 286 286 286
279 280 280 281 282 282 282 283 283 284 285 286 286 285 284 284 284 285 286 286 286 285 286 287 287 289 291 292 293 293 293 293 293 292 292 292 291 290 291 291 290 288 288 289 290 292 293 293 291 290 290 290 291 290 288 286 285 286 286 287 286 286 286 286 287 286 286 286 286 286 286 286 286 286
277 279 279 280 282 282 283 283 284 285 285 285 285 286 286 286 286 287 287 287 287 287 287 287 288 290 291 292 291 292 292 292 293 292 292 292 292 291 291 291 291 289 288 288 289 290 292 292 292 290 290 290 289 289 288 288 287 285 286 286 286 286 286 286 286 286 286 286 285 285 285 285 285 285
278 278 279 279 281 282 283 283 284 284 285 285 285 285 286 286 286 286 286 287 287 288 288 289 289 289 290 290 291 292 292 293 293 292 291 291 291 291 290 289 290 289 288 287 288 288 289 289 290 290 291 290 290 288 287 288 287 286 286 286 287 285 286 286 286 286 286 285 285 284 285 285 285 284
277 277 277 279 280 280 279 280 280 281 282 283 284 284 285 285 285 285 286 286 286 287 288 288 288 288 289 290 291 291 292 292 292 291 291 291 291 290 290 290 290 289 288 287 287 287 288 288 288 289 289 289 289 288 288 287 287 287 286 286 286 285 286 286 286 285 285 285 284 284 283 284 285 284
275 275 276 275 275 275 275 275 276 277 278 278 279 281 283 284 285 285 285 286 286 287 287 287 288 288 289 289 290 291 291 292 292 291 290 291 290 290 289 289 290 290 290 289 287 287 287 287 287 286 286 285 286 287 289 289 287 286 287 287 286 285 286 286 286 285 286 286 285 283 283 283 284 284
272 272 271 271 272 272 273 273 273 274 275 275 277 278 280 281 283 284 285 286 286 286 286 287 287 288 288 289 290 290 291 291 291 291 290 290 290 290 289 289 290 290 289 289 287 287 287 286 287 286 286 286 286 286 285 286 288 286 286 286 287 286 285 286 286 285 286 286 286 284 283 283 283 283
269 270 269 269 269 270 270 270 271 271 272 273 274 275 276 277 280 282 283 285 286 286 286 286 286 287 288 288 289 290 290 290 291 291 289 289 289 289 290 290 290 290 289 289 287 287 287 287 287 286 285 285 285 285 286 285 286 288 286 285 286 286 285 285 285 286 286 285 286 285 283 283 283 282
267 267 267 267 268 268 267 268 268 268 269 270 271 272 273 274 277 279 282 284 284 285 286 286 286 287 287 288 288 289 290 290 290 290 289 289 289 289 289 289 289 289 289 289 288 287 287 287 288 288 287 285 285 285 286 284 285 286 288 286 285 286 285 285 285 284 285 286 285 286 285 285 283 281
265 266 265 266 266 266 266 266 267 267 267 268 269 270 271 272 274 276 279 281 283 284 285 285 286 286 287 288 288 289 290 290 290 290 289 289 289 288 289 289 289 289 289 288 287 287 288 288 288 288 288 287 286 286 284 282 284 285 286 287 286 285 286 285 284 284 284 285 285 285 285 285 281 279
264 264 264 264 265 265 264 265 266 266 266 267 267 268 269 270 272 274 276 278 280 282 284 284 285 286 286 287 288 288 289 289 289 289 289 289 289 289 289 289 289 289 288 287 286 287 287 288 288 289 289 289 288 289 289 284 282 285 285 287 287 286 285 285 285 285 284 281 278 278 278 280 281 283
263 264 263 264 263 264 264 265 265 265 265 266 267 267 268 269 270 271 272 275 277 279 281 283 284 285 286 287 287 288 289 289 289 290 290 289 289 289 289 289 290 289 288 287 286 286 286 287 288 289 290 291 288 287 287 284 283 284 285 286 287 287 286 286 285 285 282 280 280 279 277 279 277 277
262 262 262 263 263 263 263 264 264 265 265 266 266 267 268 268 269 269 271 273 275 277 280 282 283 284 285 286 287 288 288 288 289 290 290 289 289 289 289 288 289 289 288 287 286 286 286 288 289 289 288 285 285 287 286 284 282 282 283 283 285 286 286 286 287 285 282 282 282 279 278 278 277 277
261 261 262 262 262 263 263 263 264 264 265 265 265 266 266 267 268 270 270 272 273 276 278 280 282 283 284 286 287 288 288 288 288 289 289 289 289 289 288 289 289 289 288 287 287 287 288 288 287 287 286 287 287 288 286 286 282 281 280 282 283 284 284 285 285 285 285 284 282 280 278 278 278 277
260 260 261 261 262 262 263 263 263 264 264 265 265 265 265 266 267 268 268 269 271 273 277 280 279 278 279 281 285 287 288 288 289 289 289 289 289 289 288 289 289 289 289 290 289 288 287 287 287 287 287 287 288 290 288 286 282 279 279 281 281 282 283 283 283 283 283 283 283 283 282 280 279 277
259 260 260 261 261 262 262 263 263 264 264 264 264 265 265 265 265 266 267 268 270 272 275 276 276 276 276 277 280 285 288 288 289 289 289 289 289 289 289 289 289 289 289 289 288 287 287 287 288 288 287 287 288 289 287 283 280 280 281 280 280 280 279 280 280 281 281 281 281 281 281 281 281 282
259 259 260 260 261 261 262 262 263 263 263 263 264 264 264 264 265 265 267 268 269 271 272 273 272 272 273 275 276 279 285 288 288 289 289 289 289 289 289 289 289 289 289 288 287 286 286 287 287 288 288 288 288 289 286 283 280 280 280 279 279 279 279 279 278 277 277 277 280 281 281 281 281 281
Wind_Speed
5 5 5 5 5 5 5 5 6 7 6 6 6 7 10 10 14 12 11 12 9 3 2 3 3 5 6 6 5 4 5 8 7 5 6 7 7 9 11 12 11 12 13 12 12 10 10 9 9 11 14 15 15 16 17 18 19 21 22 23 25 25 24 20 18 18 17 17 17 19 20 21 22 22
5 5 5 5 5 5 5 6 5 5 6 7 7 7 7 6 10 9 14 17 5 9 3 4 4 1 4 4 6 5 7 9 7 6 6 6 7 10 10 11 12 13 12 11 9 8 7 7 8 10 13 14 15 17 18 19 21 22 23 25 25 25 19 15 15 16 16 17 17 19 20 22 21 19
6 6 6 5 5 5 5 6 6 6 5 6 6 7 7 8 10 10 10 15 8 4 10 3 5 5 4 4 5 5 7 7 5 5 5 6 9 9 8 9 10 12 11 8 6 4 4 5 7 8 11 13 14 16 18 20 21 22 23 23 24 21 18 16 15 15 15 15 15 12 12 14 15 17
7 7 7 6 6 6 5 5 5 5 5 6 7 7 7 8 7 8 11 11 14 1 7 10 7 6 6 3 5 6 7 5 5 4 5 7 7 7 6 7 11 11 11 8 7 5 4 4 6 7 9 12 13 14 16 19 20 21 21 21 18 18 20 19 18 17 16 15 15 14 15 16 16 18
8 8 8 8 7 7 8 7 6 6 6 6 6 6 7 9 9 10 11 14 14 8 4 8 10 5 3 3 5 7 8 8 6 5 5 5 6 6 5 5 8 11 10 9 7 6 4 4 5 7 9 10 12 13 15 17 19 19 19 19 18 21 22 22 22 20 17 16 13 14 15 16 17 19
7 7 8 8 8 8 9 9 8 7 7 7 7 7 7 8 9 8 11 13 13 15 4 5 2 3 3 7 3 7 8 9 5 5 5 5 6 6 5 5 5 9 8 7 6 5 5 4 6 7 8 9 10 12 13 14 16 16 16 18 18 20 22 22 20 19 18 16 14 15 16 16 18 18
8 8 7 8 8 8 9 9 8 8 8 7 8 9 7 8 9 10 11 12 13 12 8 6 9 5 4 7 8 6 6 4 2 5 6 7 4 5 5 5 5 7 6 6 5 5 4 5 6 6 6 7 9 10 12 14 15 15 16 16 17 19 20 20 20 19 18 17 15 15 17 17 18 18
8 8 9 9 9 9 9 9 9 8 8 8 8 9 9 8 9 8 7 8 9 10 11 5 5 6 5 6 5 5 3 4 5 6 5 3 6 4 4 5 4 4 5 4 3 3 4 5 5 5 6 7 8 8 10 12 13 13 14 15 17 20 21 20 18 19 18 17 16 15 17 17 17 16
8 8 9 10 9 9 9 9 9 9 10 9 9 9 9 9 9 8 8 9 9 11 13 11 6 5 5 5 3 2 4 5 4 3 5 5 4 4 4 3 3 4 5 4 3 3 4 4 4 3 3 5 7 9 10 11 11 11 12 14 17 19 19 18 17 18 18 17 16 16 17 17 15 15
7 8 9 8 9 9 9 9 9 9 10 10 10 10 9 9 9 10 10 9 9 10 12 11 10 5 7 5 4 3 4 4 5 5 5 4 3 4 5 5 4 3 3 3 2 2 3 2 2 1 1 3 5 7 9 9 9 9 10 12 13 13 13 14 16 17 18 18 17 17 16 16 14 9
8 8 8 8 7 8 9 10 11 11 12 11 11 11 11 11 10 10 10 9 10 10 11 9 8 7 3 4 8 3 2 3 3 4 4 7 6 5 6 7 4 2 2 2 3 3 3 3 2 2 0 2 5 7 8 8 8 8 10 10 7 4 6 9 11 11 14 16 16 15 11 8 8 9
8 8 8 8 9 9 8 9 10 10 10 10 11 9 9 10 10 10 10 9 9 10 10 10 9 5 5 2 1 3 1 1 3 5 7 10 8 7 4 6 5 2 2 3 3 1 2 2 1 1 0 3 5 6 6 8 7 9 9 10 8 7 7 6 8 10 11 11 11 12 12 11 11 11
7 8 8 8 8 10 12 13 12 11 11 8 10 11 10 10 10 10 9 9 9 9 9 10 7 7 7 4 3 3 3 6 10 4 5 8 7 4 3 5 3 4 4 3 3 4 3 2 1 1 1 2 4 4 6 6 7 8 8 10 9 6 9 9 10 12 14 14 14 15 14 13 12 11
8 8 8 8 11 13 13 13 12 12 13 14 11 10 10 11 11 11 10 10 8 9 11 10 9 10 10 6 6 7 7 7 5 3 4 7 7 2 5 4 5 5 5 4 5 5 2 3 2 1 3 2 2 2 3 4 4 5 7 8 9 7 7 10 11 11 12 14 14 14 13 13 12 11
10 9 9 9 10 10 10 10 14 14 15 14 15 16 15 13 12 12 13 11 9 9 10 10 10 10 12 10 5 7 8 5 7 8 5 7 4 5 7 9 3 2 8 6 5 5 2 3 5 2 3 2 2 3 2 5 4 3 5 7 7 6 6 8 11 12 11 12 13 14 13 13 12 11
8 9 9 8 7 7 9 10 11 12 14 14 16 16 16 16 17 16 13 12 11 10 11 11 10 9 11 12 6 6 4 7 7 7 6 7 9 9 8 5 6 3 8 5 3 5 2 2 3 3 4 2 3 3 5 4 2 1 4 6 6 5 6 8 10 11 12 13 13 13 13 12 12 11
7 7 8 8 8 7 12 10 10 10 11 13 15 15 16 15 15 15 17 16 14 11 12 12 12 10 9 11 9 5 6 5 8 5 5 7 7 9 8 8 8 2 4 4 4 4 2 4 4 5 3 2 3 3 5 2 1 1 3 6 5 6 7 7 9 11 12 12 12 12 12 12 12 11
7 7 7 8 8 8 9 8 10 10 10 11 12 11 11 11 12 14 15 17 18 16 11 11 14 13 9 13 11 6 5 6 9 8 9 8 8 9 13 7 2 2 7 8 4 2 3 3 3 5 3 1 3 3 5 2 4 3 3 6 7 7 8 8 9 10 12 12 13 12 12 12 11 11
7 7 7 8 8 9 9 8 11 11 12 12 11 11 11 12 11 11 11 10 10 10 10 11 12 12 11 12 13 11 8 10 10 10 12 11 10 5 0 1 1 1 5 4 4 5 1 3 3 4 3 1 3 3 5 6 2 5 5 6 7 8 8 8 9 10 11 12 11 11 11 11 11 11
7 6 7 7 9 9 9 11 16 15 13 12 13 13 12 12 11 11 10 14 15 14 13 13 13 11 12 13 12 10 9 8 7 7 3 1 2 3 5 7 3 5 4 6 6 3 3 3 5 2 1 0 2 2 3 5 5 5 6 7 7 8 8 8 8 8 10 11 12 13 13 13 13 13
8 8 8 8 9 9 9 13 20 20 17 11 12 14 14 12 11 12 10 12 15 17 20 21 21 22 21 20 20 18 17 10 8 4 4 5 4 5 7 6 3 8 5 4 7 4 2 3 5 3 0 1 2 2 2 3 4 4 7 8 8 8 9 8 9 10 11 12 14 15 16 16 15 15
9 10 14 12 10 10 11 17 21 21 16 12 12 13 14 16 13 12 10 9 11 14 17 19 19 19 18 18 18 18 17 15 9 7 9 6 6 9 9 8 8 3 4 5 7 2 3 4 3 3 0 0 3 2 2 2 2 4 5 7 8 8 8 9 10 9 11 13 16 17 17 17 15 9
8 9 9 13 13 12 14 21 20 22 17 13 12 12 15 16 15 12 12 12 12 12 13 13 12 12 12 10 9 10 16 16 12 10 11 6 8 9 8 8 3 3 3 7 11 7 3 6 4 5 2 3 2 3 2 2 1 1 1 3 4 7 8 9 9 10 12 14 17 17 17 16 13 7
11 10 10 11 14 18 19 20 21 20 22 15 13 12 13 16 17 12 11 13 13 14 14 13 13 13 13 11 9 7 7 8 9 11 11 9 9 10 9 8 8 7 3 5 13 9 3 6 5 6 4 2 3 2 1 2 1 1 1 3 3 7 8 8 8 12 13 14 16 16 16 16 12 8
10 11 11 10 13 20 21 21 22 22 22 21 15 12 12 13 16 18 14 16 15 13 14 13 12 12 11 10 9 8 7 7 7 8 10 10 10 10 10 8 8 9 6 6 14 7 5 6 5 5 5 1 1 2 1 0 0 1 2 3 4 4 4 4 4 6 9 13 14 14 13 13 13 10
9 9 10 10 16 23 23 24 24 25 23 24 15 15 20 25 26 17 13 12 11 11 12 11 11 11 10 10 9 9 9 8 8 9 9 9 10 10 10 11 10 8 8 8 18 11 6 4 8 7 4 4 2 2 3 2 1 1 0 1 3 3 5 5 5 5 4 5 5 6 9 11 10 11
11 10 11 12 17 23 26 25 26 25 26 21 15 24 24 25 24 19 11 10 10 10 11 11 11 10 10 10 10 9 9 8 8 9 9 9 10 10 11 11 10 11 7 8 13 10 8 4 7 10 8 7 4 4 1 4 3 2 1 2 3 3 3 5 6 6 5 6 6 10 11 11 12 11
11 11 11 13 24 26 26 26 25 25 24 17 23 24 25 23 20 12 11 9 9 10 11 11 11 11 10 10 11 10 9 9 9 10 10 10 11 11 11 12 11 7 3 9 11 10 10 7 7 8 9 9 8 8 6 1 1 6 7 3 2 3 3 4 5 5 5 5 5 4 5 5 5 8
10 15 22 24 23 24 26 27 25 19 18 19 19 20 21 19 11 10 9 9 9 10 11 10 11 11 11 11 12 11 9 9 8 6 6 7 8 7 7 6 5 4 5 6 10 11 10 9 9 7 6 6 8 6 6 6 7 8 8 9 4 4 4 4 6 6 5 5 6 5 5 6 5 5
20 20 22 25 24 21 18 14 12 11 13 18 20 20 18 11 9 9 9 9 9 10 10 10 11 11 11 11 11 11 9 8 8 8 8 7 7 6 7 6 5 4 5 7 9 10 10 9 8 9 8 7 8 7 6 7 4 5 7 7 4 4 0 4 5 5 6 6 5 4 4 4 6 6
11 15 16 15 19 17 21 20 17 15 14 12 11 9 9 8 9 9 9 9 11 11 10 10 11 11 11 11 10 10 9 9 9 7 8 8 8 7 7 8 8 5 4 4 6 8 9 8 8 9 9 8 6 6 6 5 6 9 7 6 10 9 7 6 5 6 6 6 5 4 4 4 4 2
13 13 14 15 10 8 8 9 8 9 10 10 10 9 9 9 10 11 14 13 10 10 10 11 11 10 10 10 11 10 9 10 9 7 8 9 8 7 6 5 7 5 5 3 3 3 4 5 7 7 9 9 10 5 4 5 7 9 8 7 5 2 6 9 8 6 6 7 6 6 4 4 4 3
13 11 10 9 10 10 11 11 11 11 11 12 12 13 11 10 10 9 9 10 10 10 9 10 11 11 10 11 10 10 10 10 9 7 9 8 8 6 7 10 8 8 8 6 5 4 4 4 4 5 4 3 3 7 8 5 4 7 9 8 6 6 6 6 7 8 7 7 6 6 5 3 3 3
10 9 9 9 10 10 10 10 11 12 12 13 14 13 13 11 10 10 10 10 10 10 10 10 11 10 11 11 11 10 11 10 9 9 10 9 8 8 9 9 8 8 9 9 8 7 6 5 6 6 5 5 4 3 5 7 7 8 7 8 8 8 7 7 7 8 8 7 8 7 6 4 3 3
7 8 8 8 8 8 9 9 10 10 11 12 13 14 13 13 12 12 11 10 10 10 11 11 11 10 10 11 11 11 10 11 10 8 8 8 7 9 9 9 9 8 8 7 8 6 7 7 7 7 5 4 3 1 3 1 6 6 6 6 7 7 8 7 7 7 7 5 6 7 6 4 4 2
7 7 8 9 8 8 9 9 9 9 10 11 11 12 14 14 13 13 12 12 12 12 12 11 11 11 11 11 11 11 11 10 10 9 8 8 8 8 8 9 9 8 9 9 9 8 8 9 10 10 9 7 6 6 5 1 0 9 10 8 6 7 6 7 6 6 7 6 6 7 7 7 5 4
7 7 7 8 8 8 9 10 9 10 10 11 12 11 12 14 14 13 15 16 14 13 12 11 12 11 11 11 11 11 10 10 10 9 9 9 8 9 9 9 9 8 8 8 8 10 9 10 9 10 10 9 9 11 5 2 2 2 7 9 8 7 9 8 8 7 5 6 6 5 6 6 5 5
7 7 7 8 8 9 9 9 10 11 10 10 11 12 12 13 13 14 15 14 14 13 12 11 11 11 11 11 12 11 10 10 10 10 9 9 9 9 9 9 9 9 10 8 8 9 10 10 11 10 11 11 10 8 7 2 1 4 4 8 11 9 8 9 9 9 7 5 5 3 4 6 5 6
7 7 8 9 9 9 10 10 10 11 11 10 12 12 13 13 14 14 14 14 14 13 12 12 12 12 12 13 12 12 11 10 9 9 9 9 10 10 10 9 9 8 8 8 7 8 9 10 10 11 11 10 11 10 9 10 9 5 4 6 8 10 9 11 11 9 9 7 6 6 7 7 9 12
7 7 8 8 9 9 10 10 10 10 11 11 11 12 12 14 14 14 14 15 15 15 14 14 14 14 12 12 12 12 11 12 12 10 10 10 10 10 10 9 9 9 9 10 11 9 9 10 10 10 9 6 3 4 6 6 6 4 4 2 9 10 10 10 10 11 10 7 6 9 7 5 4 1
8 8 7 8 9 8 10 10 10 10 10 11 12 13 12 12 13 14 13 15 16 16 14 14 14 14 14 13 12 12 12 11 10 10 10 10 10 10 12 11 9 9 10 10 11 11 12 11 10 11 8 8 9 10 9 7 7 7 6 2 4 6 6 6 9 12 8 10 9 9 8 6 5 4
9 9 8 7 8 9 9 9 9 10 10 11 11 12 13 13 13 19 18 18 16 15 14 13 14 14 15 15 13 12 11 11 11 10 10 9 9 10 11 10 10 9 10 10 10 11 9 7 8 9 9 9 9 9 9 10 10 9 6 5 5 7 11 10 8 6 10 13 12 8 5 4 3 4
9 8 8 10 10 9 9 10 10 9 9 11 12 12 12 13 12 13 13 14 15 15 14 12 12 13 14 15 16 13 11 11 11 10 10 10 10 10 9 10 9 9 11 10 10 7 7 9 9 9 8 8 9 9 9 9 9 10 10 9 9 8 8 13 15 15 12 10 8 5 3 5 7 6
9 9 9 9 8 9 9 9 10 10 10 10 11 12 12 13 14 14 13 13 14 15 14 13 14 14 15 15 17 16 12 11 10 10 10 10 10 10 10 10 10 9 9 5 6 8 9 9 9 10 10 10 7 7 7 9 9 9 9 10 8 11 12 9 10 12 12 13 12 11 10 8 5 3
9 9 9 9 9 9 10 10 10 10 10 11 11 12 12 12 13 14 13 13 14 14 13 13 14 14 15 16 16 17 14 11 11 11 10 9 9 9 9 10 10 9 9 8 9 8 9 9 9 8 9 8 8 7 7 12 12 11 10 12 13 10 9 9 9 9 8 6 9 12 12 12 13 15
Wind_Direction
281 279 272 267 274 273 277 274 269 270 262 256 256 255 266 269 271 283 278 285 293 298 186 289 282 221 237 245 267 284 270 263 258 238 236 246 249 249 243 244 242 244 246 242 242 243 248 253 258 267 275 281 284 287 290 291 291 291 290 288 288 288 290 291 286 281 276 268 256 240 229 222 219 217
295 283 281 274 274 271 267 265 264 262 266 270 269 261 253 248 261 282 284 283 267 290 228 212 256 294 246 245 260 244 254 251 246 237 237 241 246 250 246 243 240 242 239 232 227 227 234 245 257 267 274 280 284 287 289 291 292 292 291 288 287 292 296 298 297 291 280 272 257 241 230 223 218 216
320 309 299 289 279 276 269 268 267 264 260 255 257 260 260 257 260 268 283 286 274 172 281 235 236 242 249 230 251 254 250 258 245 243 241 246 249 249 247 239 237 235 224 209 196 209 221 245 260 270 275 279 285 288 291 292 292 291 289 287 286 289 296 301 302 302 289 269 255 236 229 217 210 210
332 326 318 309 299 291 282 277 273 273 267 267 264 263 262 265 260 261 264 262 279 235 270 282 275 245 253 237 252 265 270 249 229 238 246 253 262 246 243 238 235 223 208 192 182 186 210 239 260 269 273 280 286 292 296 296 294 290 288 287 293 296 292 292 292 292 295 281 250 231 221 219 212 213
341 336 328 323 316 309 299 289 282 275 271 264 262 259 265 265 265 269 272 271 280 277 219 261 262 259 216 267 204 247 256 259 242 216 236 246 244 247 216 220 221 216 203 191 176 183 205 227 253 267 275 283 290 295 297 295 293 290 286 283 282 283 283 282 281 279 279 281 253 230 224 220 220 220
345 338 332 328 324 322 314 311 302 291 282 274 268 266 263 265 267 260 268 273 275 286 254 251 303 284 207 259 191 227 242 250 247 243 249 242 227 233 217 220 211 205 191 174 178 197 210 235 252 264 275 285 293 293 292 289 285 280 276 275 274 273 274 274 275 272 268 266 256 230 220 218 220 220
339 340 339 334 332 330 323 317 310 308 300 292 284 280 274 276 274 267 259 264 270 277 285 287 284 269 249 234 258 243 257 279 271 251 251 251 249 232 219 216 213 196 186 187 197 211 230 245 251 260 273 285 294 296 295 293 288 283 278 273 270 267 265 262 261 263 260 256 253 240 226 220 220 223
341 342 338 338 337 331 325 321 317 312 306 302 299 294 290 285 285 279 279 268 282 292 290 279 247 270 256 266 250 264 285 255 257 237 261 229 231 215 210 221 209 189 191 200 191 212 237 248 254 271 288 298 305 307 304 298 290 283 279 275 268 262 258 255 253 254 253 250 246 238 228 223 220 222
338 337 337 333 335 330 325 322 320 319 314 309 306 301 300 298 295 293 289 289 289 290 287 289 269 256 258 262 287 261 257 270 263 278 251 250 248 231 220 215 196 180 196 193 195 194 224 236 247 267 300 313 312 316 313 303 296 295 289 278 268 260 254 250 247 249 250 246 240 232 223 220 218 220
332 331 330 330 329 330 327 323 322 323 321 318 311 305 303 299 297 298 294 289 288 284 285 287 293 267 263 278 263 235 215 247 272 290 282 312 284 244 242 228 210 201 185 190 179 189 201 181 201 229 317 327 330 322 313 310 307 316 317 302 278 259 252 250 247 245 245 242 233 224 214 212 217 215
334 331 327 324 324 326 331 328 327 325 320 317 312 312 311 307 305 301 297 295 292 290 292 293 287 293 257 232 271 277 237 212 212 246 289 273 235 234 227 239 225 206 186 155 148 176 206 214 219 233 21 350 335 327 319 315 325 351 351 338 328 320 272 257 252 247 239 233 221 206 192 162 129 120
332 329 329 327 327 328 325 319 315 313 312 309 305 303 302 299 297 294 294 292 288 287 287 284 291 280 287 329 346 335 357 330 298 223 230 254 253 241 226 237 232 226 203 210 209 196 216 205 232 285 70 5 341 328 329 316 341 11 10 6 0 49 48 72 87 82 81 89 94 94 95 98 101 104
330 333 329 324 322 314 304 295 290 291 295 301 305 305 305 302 298 294 290 288 288 284 284 286 281 283 278 239 217 243 232 229 241 240 198 251 258 267 256 256 231 209 191 225 220 233 194 205 254 287 314 331 332 327 333 313 339 23 26 30 16 45 82 74 74 89 94 94 94 94 92 87 82 76
333 330 328 322 314 310 305 299 297 303 307 304 299 299 304 302 299 295 292 287 283 283 282 280 285 282 276 257 223 239 236 237 266 290 230 240 258 263 267 285 236 195 191 201 230 229 186 188 223 239 251 293 304 306 321 321 330 28 41 49 44 28 61 86 84 84 91 98 100 100 99 100 102 103
330 328 327 322 318 313 313 317 318 311 306 304 303 303 299 292 290 295 290 283 285 284 279 280 277 276 278 274 243 233 242 225 231 238 229 240 255 236 245 257 308 225 178 196 227 241 211 188 211 227 243 270 296 301 305 307 339 32 64 71 69 59 49 71 86 92 91 91 96 100 101 101 103 105
324 321 321 321 319 318 319 318 315 309 304 304 303 302 300 298 292 281 272 280 281 276 281 279 275 278 274 279 251 241 232 246 246 239 229 227 227 236 232 233 237 243 176 179 185 257 212 231 211 209 239 260 267 281 300 318 338 2 96 93 96 97 93 93 97 103 106 106 105 105 107 110 108 105
317 315 315 316 320 321 319 315 312 310 311 309 305 301 299 295 289 289 284 271 260 269 268 273 274 271 283 279 265 215 218 215 239 231 229 236 234 234 239 234 233 212 164 137 194 239 217 174 202 217 228 260 276 292 306 318 146 215 134 120 120 118 118 114 114 111 110 110 111 112 113 113 114 114
309 310 312 314 315 316 318 313 312 313 310 309 310 311 308 300 295 291 284 282 276 264 254 260 266 271 268 273 280 261 234 234 237 222 232 229 231 230 230 240 222 185 172 179 163 241 232 195 181 228 224 239 276 272 297 306 168 182 185 146 143 140 134 131 128 125 121 119 118 118 119 118 118 118
304 306 310 310 309 312 313 312 313 314 313 312 309 304 302 300 299 293 290 288 284 280 266 256 258 265 260 262 268 272 255 238 243 230 236 232 231 243 34 41 145 155 210 176 139 240 192 154 181 223 187 241 269 281 295 317 214 187 183 163 156 148 143 140 139 134 126 121 119 119 119 115 112 109
303 304 307 311 308 308 309 309 313 314 316 315 312 308 302 300 297 290 284 281 280 277 276 274 271 268 265 262 263 267 269 262 258 268 290 68 125 178 221 234 204 225 206 193 172 222 228 184 187 198 129 307 247 287 293 302 322 212 188 169 161 153 144 140 145 138 126 123 121 118 116 115 112 111
315 315 316 313 310 308 308 309 317 320 323 316 312 310 306 302 298 295 295 287 283 282 278 273 270 271 272 272 274 272 266 256 245 236 235 231 177 197 228 235 208 233 180 206 201 212 233 177 182 151 164 181 262 266 272 291 313 262 181 164 165 158 149 158 149 134 131 127 123 122 120 118 113 105
317 314 314 314 312 311 307 314 319 321 323 314 310 311 310 307 302 295 297 299 293 288 284 281 278 275 274 273 271 270 266 256 228 201 230 218 180 221 221 230 222 223 168 205 170 182 221 140 159 119 32 3 252 237 258 285 296 311 190 170 170 160 151 148 139 139 138 132 129 127 125 123 117 103
315 313 311 309 309 310 314 318 320 319 319 311 307 308 307 305 298 293 300 301 305 311 306 298 297 290 278 269 260 259 258 253 232 220 231 214 197 224 224 225 214 233 243 204 169 187 198 149 193 142 124 244 238 177 244 271 297 286 232 169 155 144 139 143 143 143 140 133 132 132 131 129 122 108
318 315 311 310 312 316 317 318 317 316 313 310 304 303 301 300 295 297 300 295 296 295 290 291 291 285 284 278 272 267 263 257 232 228 229 225 214 225 230 217 207 222 214 199 170 185 178 165 181 189 171 154 240 202 185 230 251 268 192 153 141 144 142 143 141 143 139 134 134 137 137 134 127 117
309 311 313 310 311 314 315 317 315 313 310 307 301 294 287 282 286 294 293 291 290 286 287 285 284 284 280 272 264 263 259 250 239 232 233 229 222 223 230 222 214 237 217 198 184 174 179 178 177 165 222 166 247 123 246 107 327 247 226 177 146 145 134 140 134 139 139 133 136 138 137 133 131 132
301 300 302 304 309 313 313 313 312 311 310 308 303 288 287 290 292 291 288 286 287 283 282 283 282 281 277 275 265 256 252 248 237 231 229 231 232 228 231 224 218 227 219 200 182 185 147 172 180 170 173 163 228 152 140 196 246 297 290 172 155 155 144 143 133 133 124 119 123 133 131 125 126 131
301 299 297 295 301 308 309 310 310 309 309 307 293 294 295 294 291 290 285 282 279 276 275 278 278 278 276 274 270 256 250 243 232 232 225 227 227 230 235 239 234 234 217 171 187 182 177 170 171 174 186 191 157 167 220 158 201 158 145 149 151 145 149 144 140 138 128 122 126 131 125 118 115 113
298 298 299 302 306 307 306 306 307 307 305 296 297 298 295 291 288 286 284 278 275 273 274 273 274 274 270 268 266 259 245 242 228 225 223 225 228 227 231 235 239 244 174 167 179 188 189 176 171 195 182 176 183 177 191 164 109 171 159 143 141 159 159 146 134 127 125 123 120 121 115 115 106 106
295 297 300 302 303 303 302 303 302 298 292 291 291 291 290 290 289 284 279 279 278 276 273 273 274 271 268 262 262 262 252 243 237 235 240 235 235 237 242 247 238 203 171 174 178 188 190 184 178 176 180 189 196 204 174 175 163 171 167 150 158 196 174 158 145 140 136 130 135 139 142 138 133 133
304 305 306 304 302 300 297 294 295 297 296 296 293 291 288 283 278 274 279 278 277 273 274 273 271 272 275 271 266 260 251 245 239 228 230 226 229 216 220 223 224 200 195 183 185 190 191 185 175 168 183 197 205 196 176 133 157 164 168 171 130 74 239 161 149 144 141 141 140 136 135 138 145 148
307 307 306 301 300 290 286 283 281 285 292 297 297 298 291 282 278 281 281 282 283 280 277 275 273 273 272 273 273 264 249 243 240 221 227 224 227 207 213 212 217 195 212 208 204 194 188 185 169 164 179 196 199 202 181 166 150 155 172 166 162 175 175 164 156 152 143 127 120 116 118 115 111 96
313 310 307 303 295 295 304 309 317 315 310 304 304 303 302 297 290 285 280 277 273 271 271 272 274 275 275 270 266 261 250 244 238 218 217 219 222 208 200 207 219 185 192 210 209 206 191 179 167 176 187 179 190 182 149 171 165 168 171 177 181 65 148 162 156 152 139 129 120 123 140 139 137 129
314 310 306 314 328 336 332 332 328 326 323 320 316 311 307 305 302 297 297 294 292 291 289 287 285 284 280 273 266 259 252 244 236 213 220 217 217 211 201 211 199 181 190 192 184 176 166 161 140 155 166 164 180 158 154 156 174 167 170 174 171 159 167 165 159 149 141 134 133 134 124 133 134 135
311 312 321 330 332 331 333 328 327 327 328 324 322 318 314 308 302 300 296 292 293 292 291 289 288 285 280 276 269 260 253 249 236 220 209 216 205 204 200 215 212 200 193 186 178 171 153 134 116 89 81 69 57 144 188 178 164 177 176 171 171 170 172 162 155 151 157 156 148 139 133 141 144 126
325 321 326 325 327 325 324 322 321 323 322 321 319 317 316 312 307 304 299 299 299 297 296 295 290 287 280 275 272 264 255 248 238 228 217 217 202 207 204 207 213 198 192 177 171 162 151 143 134 119 94 105 114 1 66 109 156 163 156 171 181 164 164 166 149 153 149 138 148 143 137 149 146 109
326 327 325 322 323 326 325 321 318 317 315 315 317 317 315 311 310 308 305 306 304 299 295 293 291 288 286 281 275 266 257 247 241 228 217 211 209 208 209 211 209 201 190 185 175 164 161 158 156 155 155 145 173 190 216 347 100 164 162 172 168 163 153 148 149 147 149 150 164 159 158 161 160 141
328 329 324 320 319 321 317 316 315 313 313 312 311 311 309 308 308 306 305 305 296 293 291 291 290 290 287 284 277 268 259 247 241 230 219 210 207 208 210 212 205 194 192 193 171 167 166 166 171 165 164 173 181 202 188 52 325 282 175 160 162 169 158 153 151 148 158 154 158 168 161 153 151 126
330 326 323 321 320 318 315 315 313 311 312 311 310 307 303 303 305 304 305 302 300 298 296 294 292 291 288 283 280 272 259 247 240 230 220 211 205 207 210 209 205 193 191 174 172 177 177 171 174 178 172 183 189 192 178 204 125 230 199 167 163 164 158 153 156 155 147 150 138 123 129 140 129 107
334 330 328 322 320 319 316 315 315 311 309 308 308 309 307 305 305 307 309 305 302 299 298 297 295 292 289 286 279 272 264 252 239 232 221 214 208 209 206 206 202 191 175 172 173 180 182 182 180 181 184 186 194 191 181 174 199 155 163 191 158 151 171 165 159 155 151 123 103 78 60 80 95 105
332 329 322 321 319 318 313 311 310 310 307 306 306 307 306 304 305 306 307 306 305 303 300 295 296 297 291 285 281 275 263 250 242 232 224 217 211 209 208 202 197 185 186 179 173 184 190 193 183 182 190 182 139 106 103 91 69 72 83 111 177 177 164 160 161 154 124 128 131 125 129 129 112 107
331 326 321 316 309 308 311 311 308 309 308 308 307 307 305 303 303 302 303 305 304 300 300 303 302 300 295 290 282 271 265 256 244 234 224 219 212 208 206 198 198 182 184 187 186 179 194 198 190 165 137 115 124 109 102 108 130 140 135 104 69 113 152 167 158 155 144 150 141 128 133 138 120 134
326 322 314 310 308 310 307 306 308 307 307 310 309 308 306 303 300 304 305 306 306 303 298 299 310 316 311 299 287 274 260 252 246 236 224 218 214 211 207 201 199 187 188 190 192 201 186 147 132 125 135 142 142 152 173 169 156 148 138 117 93 87 96 97 92 101 144 154 148 139 115 92 100 126
320 312 314 316 315 309 308 306 305 304 306 313 313 311 310 308 306 310 310 310 308 305 300 308 320 316 313 310 300 282 266 252 242 235 225 215 210 204 203 203 201 191 195 192 187 166 144 149 147 148 154 167 178 175 181 167 149 140 138 135 125 107 86 84 89 87 73 61 55 87 123 140 150 173
315 313 309 309 306 306 304 304 304 307 309 311 312 313 310 310 309 308 308 308 309 308 312 317 318 316 313 311 310 296 270 257 245 240 227 220 208 207 203 199 196 189 196 186 157 155 152 158 166 160 162 187 182 181 155 131 145 153 145 135 129 120 114 114 97 82 65 52 57 73 73 70 71 91
314 311 308 308 307 307 308 306 307 308 309 311 309 309 311 309 306 306 306 307 307 308 308 312 314 312 311 309 308 304 291 260 248 240 233 222 212 208 204 197 192 188 186 169 153 155 160 161 163 172 177 180 182 182 150 150 146 143 141 141 139 131 132 131 122 111 92 82 53 72 84 87 86 87